Temperature
15 15 15 15 14 14 14 14 14 13 12 12 12 12 12 12 12 12 12 11 12 12 11 11 11 11 11 11 11 11 11 11 11 10 10 10 10 10
14 14 14 14 14 14 14 14 13 13 13 12 12 12 11 11 11 11 11 11 11 11 11 11 11 11 11 11 10 10 10 10 10 10 10 10 10 10
14 14 14 14 14 14 14 13 13 13 13 12 12 11 11 11 11 11 11 11 11 11 11 11 10 10 10 10 10 10 10 10 10 10 10 10 10 10
14 14 14 14 14 14 13 13 13 13 13 12 12 11 11 11 11 11 11 11 10 10 10 10 10 10 10 10 10 9 9 9 9 9 9 9 9 9
14 14 14 14 14 13 13 13 13 13 13 12 12 11 11 11 11 11 11 10 10 10 10 10 10 9 9 9 9 9 9 9 9 9 9 9 9 8
14 14 13 13 13 13 13 13 13 13 12 12 12 11 11 11 11 11 10 10 10 10 10 9 9 9 9 9 9 8 8 8 8 8 8 8 8 8
14 13 13 13 13 13 13 13 13 12 12 12 12 11 11 11 10 10 10 10 10 9 9 9 9 9 9 8 8 8 8 8 8 8 7 7 7 7
13 13 13 13 13 13 13 12 12 12 12 12 11 11 11 10 10 10 10 10 9 9 9 9 9 8 8 8 8 8 8 7 7 7 7 7 7 7
13 13 13 13 12 12 12 12 12 11 11 11 11 11 10 10 10 10 9 9 9 9 9 9 9 8 8 8 8 7 7 7 7 7 7 6 6 6
13 13 12 12 12 12 12 12 11 11 11 11 10 10 10 10 9 9 9 9 9 8 8 8 8 8 8 8 7 7 7 6 6 6 6 6 6 6
12 12 12 12 12 12 12 11 11 11 10 10 10 10 10 9 9 9 9 9 8 8 8 8 8 7 8 7 7 7 6 6 6 6 6 6 5 5
12 12 12 12 12 11 11 11 11 11 10 10 10 10 9 9 9 9 8 8 8 8 7 7 7 6 6 7 6 6 6 6 6 5 5 5 5 5
12 12 12 12 11 11 11 11 11 10 10 10 9 9 9 9 9 8 8 8 7 7 7 6 6 6 6 6 6 6 5 5 5 5 5 5 4 4
12 12 11 11 11 11 11 10 10 10 10 9 9 9 9 8 8 8 8 7 7 7 6 6 6 6 5 5 5 5 5 5 5 5 5 4 4 4
11 11 11 11 11 10 10 10 10 10 9 9 9 8 8 8 8 7 7 7 7 6 6 6 6 5 5 5 5 5 4 4 4 4 4 4 4 3
11 11 11 10 10 10 10 9 9 9 9 9 8 8 7 7 7 7 7 7 6 6 6 6 5 5 5 5 4 4 4 3 3 3 3 4 3 3
11 11 10 10 10 10 9 9 9 9 8 8 8 7 7 7 7 6 6 6 6 6 6 5 5 5 4 4 4 4 3 3 3 3 3 3 3 3
11 11 10 10 10 9 9 9 9 8 8 8 7 7 7 6 6 6 5 5 5 5 5 5 4 4 4 4 3 3 3 2 3 2 2 2 2 2
10 10 10 10 9 9 9 8 8 8 8 7 7 7 6 6 6 5 5 5 5 5 4 4 4 3 3 3 3 2 2 2 2 2 2 1 1 2
10 10 10 9 9 9 8 8 8 8 7 7 7 6 6 6 5 5 5 4 4 4 4 4 3 2 2 2 2 2 2 1 1 1 1 1 1 1
10 9 9 9 9 8 8 8 7 7 7 7 6 6 6 5 5 5 4 4 4 4 3 3 3 2 2 1 1 2 2 1 1 0 0 0 0 1
9 9 9 9 8 8 8 7 7 7 7 6 6 5 5 5 5 4 4 4 3 3 3 2 2 2 1 1 1 1 1 1 1 1 0 -0 -1 -1
9 9 9 8 8 8 7 7 7 6 6 6 5 5 5 5 4 4 3 3 3 3 2 2 1 1 1 1 0 0 0 0 1 1 1 0 -0 -0
Wind_Speed
3 3 2 1 1 1 2 3 4 2 1 2 2 2 1 3 3 4 5 5 5 6 6 6 7 7 7 8 8 8 8 9 9 9 9 9 9 9
2 3 2 1 2 2 2 2 2 3 2 1 1 1 2 3 3 3 3 4 5 5 5 5 6 6 6 7 7 8 8 8 8 8 9 9 9 9
2 3 2 2 2 2 2 2 2 3 3 1 2 2 3 2 3 3 2 2 3 4 4 5 4 4 6 7 7 7 7 7 8 8 8 8 8 8
2 3 2 2 2 2 2 2 2 2 3 2 1 2 2 1 2 2 2 2 2 2 3 4 4 4 5 6 6 7 6 6 7 7 8 8 8 8
3 3 2 3 2 2 3 3 2 3 3 3 1 1 1 2 2 2 3 3 3 3 4 4 4 4 4 5 5 6 5 4 5 6 7 8 8 8
3 3 2 3 3 3 3 3 3 4 4 3 2 2 1 1 2 2 2 2 2 3 4 4 4 4 4 5 5 5 5 4 5 6 6 7 7 7
3 2 3 4 4 4 4 4 4 4 3 3 2 2 1 1 1 0 1 2 2 2 2 3 3 3 4 5 4 4 5 5 5 5 6 6 7 7
3 2 3 3 5 6 6 6 6 5 4 3 2 1 1 1 0 1 1 1 2 2 1 2 2 2 4 4 4 4 4 5 5 6 6 7 7 8
4 3 3 3 4 3 5 6 4 4 5 5 3 2 2 2 1 1 1 1 2 2 0 2 2 3 4 5 5 4 5 5 6 7 7 7 8 9
4 4 4 2 3 4 4 4 3 2 3 3 3 3 2 2 3 2 2 1 1 2 1 1 3 3 5 5 5 5 6 7 7 8 7 8 8 9
3 3 4 3 4 6 5 4 3 2 4 4 4 3 3 2 3 2 2 2 1 3 1 0 2 3 3 3 5 7 7 8 9 9 8 8 8 8
2 2 4 4 5 6 5 4 3 0 1 3 4 4 5 5 4 2 2 1 0 2 2 0 2 2 3 3 4 6 6 7 8 9 9 9 9 7
3 2 1 5 5 6 5 4 4 3 2 2 2 2 3 3 4 3 2 2 2 2 2 1 1 1 2 3 3 3 4 5 6 7 9 10 10 7
4 3 3 5 5 5 4 4 5 5 3 2 2 2 2 2 2 3 3 2 1 2 2 1 1 2 2 3 4 4 4 6 5 5 8 10 9 10
4 5 5 4 4 3 4 4 4 3 3 2 1 1 1 1 2 2 3 3 3 3 3 1 1 1 2 2 3 3 3 4 4 4 5 6 6 6
3 4 5 5 4 4 3 3 2 2 3 2 0 1 1 1 1 1 1 2 2 3 5 5 4 1 2 3 3 4 3 3 4 5 5 5 7 8
5 3 3 2 2 1 1 1 1 1 1 1 1 0 1 1 2 1 1 1 1 3 4 4 6 4 3 3 3 3 4 4 4 4 4 5 5 7
6 4 3 3 3 3 2 1 1 1 1 1 1 1 0 0 1 1 1 1 2 2 3 4 4 3 3 3 4 3 3 4 4 4 3 4 6 6
4 4 4 4 3 3 3 2 2 2 2 2 2 1 1 0 0 1 1 1 2 2 3 3 2 2 4 5 4 3 4 5 4 4 4 4 6 7
3 4 4 4 3 3 3 3 2 1 1 1 1 1 1 1 1 1 1 1 2 2 3 3 2 2 3 5 5 5 7 5 4 5 5 5 6 10
4 4 4 4 4 3 3 3 3 2 2 2 2 2 2 1 1 1 1 2 2 2 3 4 4 6 3 2 4 5 5 8 7 5 5 5 5 5
4 4 4 4 4 3 3 3 2 2 2 2 2 2 2 1 2 2 2 2 2 3 3 3 3 3 2 3 5 6 6 6 9 11 9 7 4 5
4 4 3 3 3 3 3 3 3 3 3 2 2 2 2 2 2 2 2 2 2 3 3 3 3 2 3 3 5 5 6 7 5 5 6 11 13 13
Wind_Direction
117 113 101 93 117 125 138 148 145 141 334 320 342 326 87 91 88 80 72 61 59 55 53 53 49 44 40 40 40 39 39 37 36 34 34 31 29 28
122 104 88 92 91 92 120 111 128 147 166 300 322 310 91 94 86 90 79 61 52 53 52 53 47 42 37 37 41 41 41 37 32 31 29 27 25 22
105 109 95 90 98 95 92 90 93 114 137 4 23 39 67 73 62 72 64 58 43 40 48 47 42 40 40 37 40 42 39 34 29 25 20 18 17 16
111 103 93 92 87 91 93 90 95 109 136 130 34 36 52 84 79 72 46 35 38 35 35 36 43 44 37 38 37 35 33 29 27 23 18 12 10 10
126 122 120 110 91 91 96 94 88 92 101 121 86 32 37 50 47 35 35 23 25 39 35 31 32 29 27 26 25 26 25 26 25 21 17 10 6 3
119 121 123 130 137 129 117 119 109 97 94 102 89 46 28 5 53 35 9 354 358 21 18 18 14 12 6 4 6 12 18 21 20 17 13 8 3 358
101 102 111 118 125 127 131 134 125 114 107 100 91 61 29 24 359 314 5 345 342 1 351 353 357 354 345 341 343 351 359 2 2 2 3 1 358 353
124 109 97 88 96 99 118 126 134 136 140 128 120 124 239 257 290 64 72 36 325 322 11 326 355 314 322 327 328 341 346 346 343 342 344 345 347 346
140 134 123 99 88 91 93 89 91 119 141 146 147 186 197 218 164 106 140 173 252 283 26 310 318 308 315 321 326 327 331 332 331 329 329 333 335 337
131 136 132 124 118 115 106 89 73 67 113 132 160 193 196 190 177 175 185 176 309 323 64 283 307 303 315 321 325 321 321 318 318 319 321 324 327 331
122 128 136 140 140 124 112 106 81 38 71 95 109 101 80 80 106 93 72 72 336 306 323 220 297 308 307 303 323 325 320 317 317 317 319 322 323 324
116 122 136 139 138 133 129 126 121 74 60 63 56 52 56 53 62 99 148 134 217 290 299 319 309 340 325 305 316 328 328 322 322 320 320 321 322 322
145 153 153 140 130 133 132 141 152 136 102 87 60 34 33 33 31 38 74 150 168 249 273 179 271 295 273 297 308 315 325 324 323 321 321 317 317 316
168 175 160 145 134 131 128 128 121 106 93 79 61 30 14 355 345 15 34 52 132 235 278 168 214 241 260 287 292 307 313 317 320 318 319 320 317 312
167 163 152 142 131 117 113 118 114 106 105 98 76 308 292 300 348 11 20 28 14 357 358 6 266 255 234 252 280 295 308 306 319 316 315 315 308 309
144 141 133 121 111 103 91 89 106 131 141 151 208 305 346 1 356 355 354 354 356 332 350 353 334 274 263 266 262 284 284 292 306 304 303 300 305 302
133 110 107 110 113 92 80 83 97 106 125 129 117 37 12 10 344 340 3 14 345 318 326 332 338 319 272 251 269 274 281 288 290 296 301 301 292 301
130 140 156 162 166 171 166 163 153 170 185 167 160 171 190 257 325 343 7 356 324 310 308 313 330 338 331 298 241 258 282 283 292 297 290 292 293 296
142 166 176 181 183 181 183 185 200 206 181 166 179 198 206 235 312 325 332 328 316 312 310 315 332 341 329 316 300 287 288 295 300 296 287 281 283 290
169 179 186 188 187 189 192 197 201 185 170 177 187 199 201 214 265 290 291 296 301 307 315 321 320 314 294 290 290 299 303 292 293 295 292 288 281 293
192 192 191 190 192 191 192 190 188 191 192 188 201 209 207 205 244 261 272 295 297 297 298 297 293 312 304 313 307 301 297 310 310 299 296 296 301 299
192 194 196 191 187 187 187 185 193 201 197 197 209 214 215 216 234 248 264 281 280 277 279 287 306 319 314 302 301 304 306 311 319 319 313 307 303 295
192 187 188 189 186 179 183 190 199 209 204 197 205 217 217 224 238 240 253 262 276 281 290 298 305 295 289 285 292 299 305 310 312 313 306 314 310 303
Height
1561 1561 1560 1560 1560 1560 1560 1559 1559 1558 1558 1557 1557 1556 1555 1555 1554 1553 1552 1551 1550 1549 1548 1546 1545 1543 1542 1540 1539 1537 1536 1535 1534 1532 1531 1530 1529 1528
1560 1560 1560 1560 1559 1559 1559 1559 1558 1558 1557 1557 1556 1554 1554 1554 1554 1553 1552 1551 1550 1549 1548 1546 1545 1543 1541 1540 1538 1537 1535 1534 1533 1531 1530 1529 1528 1527
1559 1559 1559 1559 1559 1559 1558 1558 1558 1557 1556 1556 1556 1555 1554 1554 1553 1553 1552 1551 1550 1549 1547 1546 1544 1543 1541 1539 1537 1536 1534 1533 1531 1530 1529 1528 1527 1526
1558 1558 1558 1558 1558 1558 1557 1557 1557 1556 1556 1555 1555 1555 1554 1554 1553 1552 1551 1550 1549 1548 1547 1545 1544 1542 1540 1539 1536 1534 1532 1531 1530 1529 1528 1527 1525 1524
1558 1558 1558 1558 1557 1557 1557 1557 1556 1556 1556 1555 1554 1554 1554 1554 1553 1552 1551 1550 1549 1547 1546 1545 1543 1542 1540 1538 1536 1533 1530 1529 1529 1528 1527 1525 1524 1523
1557 1557 1557 1557 1557 1557 1556 1556 1556 1555 1555 1555 1554 1554 1553 1553 1552 1551 1550 1549 1548 1547 1546 1544 1543 1541 1539 1537 1535 1532 1530 1528 1528 1527 1526 1524 1523 1521
1556 1556 1556 1556 1556 1556 1556 1555 1555 1555 1554 1554 1554 1553 1553 1552 1551 1550 1549 1548 1547 1546 1545 1543 1542 1540 1538 1536 1534 1532 1530 1528 1527 1526 1524 1523 1521 1520
1555 1555 1555 1556 1555 1555 1555 1555 1555 1554 1553 1553 1553 1552 1552 1552 1551 1550 1548 1547 1546 1546 1544 1542 1541 1539 1537 1535 1533 1531 1529 1528 1526 1524 1523 1521 1520 1518
1554 1554 1555 1555 1555 1555 1554 1554 1553 1553 1553 1553 1552 1552 1551 1551 1550 1549 1548 1546 1545 1544 1542 1540 1539 1537 1535 1533 1532 1530 1528 1526 1525 1523 1521 1519 1518 1516
1553 1554 1554 1554 1554 1554 1553 1553 1553 1552 1552 1551 1551 1551 1550 1550 1549 1548 1547 1545 1544 1543 1541 1538 1537 1535 1534 1532 1530 1528 1527 1525 1523 1521 1519 1517 1515 1514
1552 1552 1553 1553 1553 1553 1552 1552 1552 1551 1551 1551 1550 1550 1549 1548 1547 1546 1545 1544 1542 1540 1539 1537 1535 1533 1531 1529 1528 1526 1524 1522 1520 1518 1517 1515 1513 1511
1550 1551 1551 1551 1551 1551 1551 1551 1550 1550 1550 1549 1549 1548 1547 1547 1546 1544 1543 1542 1540 1538 1537 1535 1533 1531 1528 1527 1525 1524 1522 1520 1518 1516 1513 1511 1509 1507
1548 1549 1549 1550 1550 1550 1550 1549 1549 1549 1549 1548 1547 1547 1546 1545 1543 1542 1541 1540 1538 1537 1536 1533 1531 1529 1527 1524 1522 1521 1519 1516 1514 1512 1510 1508 1506 1504
1546 1547 1547 1548 1548 1548 1548 1548 1548 1548 1547 1546 1546 1545 1544 1543 1541 1540 1539 1538 1536 1535 1533 1531 1529 1527 1524 1521 1519 1517 1515 1513 1511 1508 1506 1504 1502 1500
1544 1545 1546 1546 1546 1546 1546 1546 1546 1545 1545 1544 1543 1543 1542 1541 1540 1538 1537 1535 1534 1532 1530 1528 1526 1524 1522 1519 1516 1514 1511 1509 1507 1505 1502 1500 1497 1495
1542 1542 1543 1544 1544 1544 1544 1544 1543 1543 1543 1542 1541 1541 1540 1539 1537 1535 1534 1532 1530 1529 1527 1525 1523 1521 1518 1516 1514 1511 1509 1506 1504 1501 1498 1496 1494 1492
1539 1540 1540 1541 1541 1541 1541 1541 1541 1541 1540 1540 1539 1538 1537 1536 1534 1533 1531 1529 1527 1525 1523 1522 1519 1517 1515 1513 1510 1507 1505 1502 1500 1497 1494 1491 1489 1487
1536 1537 1537 1538 1538 1538 1538 1538 1538 1538 1537 1537 1536 1535 1534 1532 1531 1530 1528 1526 1524 1522 1520 1518 1515 1513 1511 1508 1507 1503 1501 1498 1496 1493 1490 1487 1484 1482
1533 1533 1534 1534 1535 1535 1536 1536 1535 1535 1535 1534 1533 1532 1531 1530 1528 1527 1525 1523 1521 1519 1517 1515 1512 1509 1506 1504 1502 1501 1497 1494 1491 1488 1486 1483 1480 1477
1529 1530 1531 1531 1532 1532 1532 1532 1532 1532 1531 1531 1530 1529 1528 1527 1525 1523 1522 1520 1518 1516 1514 1512 1509 1507 1504 1502 1499 1496 1494 1490 1487 1484 1481 1478 1476 1474
1526 1527 1527 1528 1528 1529 1529 1529 1529 1528 1528 1527 1526 1526 1525 1523 1522 1520 1518 1517 1515 1512 1510 1508 1506 1505 1502 1499 1496 1492 1490 1488 1484 1481 1477 1474 1470 1467
1523 1523 1524 1524 1525 1525 1525 1525 1525 1525 1524 1523 1523 1522 1521 1520 1518 1516 1515 1513 1511 1509 1507 1505 1503 1501 1498 1495 1492 1489 1486 1484 1481 1479 1475 1472 1468 1464
1519 1520 1520 1520 1521 1521 1521 1522 1521 1521 1520 1519 1519 1518 1517 1516 1514 1513 1511 1509 1507 1506 1504 1502 1499 1497 1495 1492 1489 1486 1483 1479 1476 1473 1471 1469 1467 1463